Location: Roy
(47.3334°N, 108.9587°W)
Time: 02:24:58
(UTC+00:00)

ISS - Visible Passes

Search period start: 20 January 2022 00:00
Search period end: 30 January 2022 00:00
Orbit: 413 x 422 km, 51.6° (Epoch: 19 January)

Date Brightness Start Highest point End Pass type
(mag) Time Alt. Az. Time Alt. Az. Time Alt. Az.
20 Jan -3.3 01:46:10 10° SW 01:49:22 45° SSE 01:49:26 45° SE visible
21 Jan -2.6 00:58:40 10° SSW 01:01:36 29° SE 01:03:41 16° E visible
21 Jan -1.7 02:34:54 10° WSW 02:36:38 27° W 02:36:38 27° W visible
22 Jan -3.9 01:47:02 10° WSW 01:50:23 84° NNW 01:50:53 61° NE visible
23 Jan -3.7 00:59:20 10° SW 01:02:39 67° SSE 01:05:09 16° ENE visible
23 Jan -1.6 02:36:23 10° W 02:38:06 25° WNW 02:38:06 25° WNW visible
24 Jan -3.3 01:48:33 10° W 01:51:49 49° NNW 01:52:24 43° NNE visible
25 Jan -3.5 01:00:49 10° WSW 01:04:08 63° NNW 01:06:45 15° ENE visible
25 Jan -1.5 02:38:08 10° WNW 02:39:42 23° NW 02:39:42 23° NW visible
26 Jan -3.0 01:50:28 10° WNW 01:53:37 38° N 01:54:06 36° NNE visible
27 Jan -3.0 01:02:49 10° W 01:06:02 42° N 01:08:33 15° ENE visible
27 Jan -1.5 02:40:03 10° WNW 02:41:31 22° NW 02:41:31 22° NW visible
28 Jan -3.1 01:52:34 10° WNW 01:55:44 39° N 01:56:03 37° NNE visible
29 Jan -2.9 01:05:07 10° WNW 01:08:16 37° N 01:10:41 15° ENE visible
29 Jan -1.6 02:42:05 10° WNW 02:43:40 25° WNW 02:43:40 25° WNW visible
